Point Mugu Nawc, CA

12:46 PM PDT on August 25, 2016 (GMT -0700)
Point Mugu Naval Air Station

Weather History for KNTD - September, 2011

Change the Weather History Date:

Saturday, September 17, 2011

  Actual Average Record
Temperature  
Mean Temperature 62 °F -  
Max Temperature 70 °F 71 °F 82 °F (2014)
Min Temperature 54 °F 57 °F 51 °F (2005)
Degree Days  
Heating Degree Days 3    
Growing Degree Days 12 (Base 50)    
Moisture  
Dew Point 58 °F    
Average Humidity 82    
Maximum Humidity 94    
Minimum Humidity 71    
Precipitation  
Precipitation 0.00 in - - ()
Sea Level Pressure  
Sea Level Pressure 30.01 in    
Wind  
Wind Speed 3 mph (WNW)    
Max Wind Speed 13 mph    
Max Gust Speed -    
Visibility 8 miles    
Events      
Averages and records for this station are not official NWS values.
T = Trace of Precipitation, MM = Missing Value Source: NWS Daily Summary

Daily Weather History Graph

Daily Weather History Graph

Search for Another Location

Airport or City:

Trip Planner

Search our weather history database for the weather conditions in past years. The results will help you decide how hot, cold, wet, or windy it might be!

Date:

Astronomy

Sep. 17, 2011 Rise Set
Actual Time 6:40 AM PDT 7:00 PM PDT
Civil Twilight 6:15 AM PDT 7:25 PM PDT
Nautical Twilight 5:46 AM PDT 7:54 PM PDT
Astronomical Twilight 5:16 AM PDT 8:24 PM PDT
Moon 9:51 PM PDT (9/17) 11:30 AM PDT (9/17)
Length of Visible Light 13h 09m
Length of Day
12h 19m
Waning Gibbous, 76% of the Moon is Illuminated
Sep 17
Waning Gibbous
Sep 20
Last Quarter
Sep 27
New
Oct 3
First Quarter
Oct 11
Full

Hourly Weather History & Observations

Time (PDT) Temp. Dew Point Humidity Pressure Visibility Wind Dir Wind Speed Gust Speed Precip Events Conditions
12:00 AM - - N/A% - - North - - N/A   Unknown
12:54 AM 62.1 °F - N/A% 29.98 in 10.0 mi Calm Calm - N/A   Overcast
1:54 AM 62.1 °F - N/A% 29.98 in 10.0 mi Calm Calm - N/A   Overcast
2:54 AM 62.1 °F - N/A% 29.98 in 10.0 mi Calm Calm - N/A   Overcast
3:54 AM 63.0 °F - N/A% 29.98 in 10.0 mi Calm Calm - N/A   Overcast
4:54 AM 62.1 °F - N/A% 29.98 in 10.0 mi Calm Calm - N/A   Overcast
5:54 AM 62.1 °F 59.9 °F 93% 29.99 in 7.0 mi Calm Calm - N/A   Overcast
6:54 AM 62.1 °F 60.4 °F 94% 30.00 in 7.0 mi Calm Calm - N/A   Overcast
7:54 AM 62.1 °F 59.7 °F 92% 30.03 in 7.0 mi West 3.5 mph - N/A   Overcast
8:54 AM 63.0 °F 59.7 °F 89% 30.04 in 7.0 mi West 6.9 mph - N/A   Overcast
9:54 AM 66.0 °F 59.9 °F 81% 30.05 in 7.0 mi West 4.6 mph - N/A   Overcast
10:54 AM 66.0 °F 60.1 °F 81% 30.05 in 7.0 mi West 3.5 mph - N/A   Overcast
11:54 AM 68.0 °F 59.4 °F 74% 30.05 in 7.0 mi WSW 5.8 mph - N/A   Overcast
12:54 PM 68.0 °F 58.8 °F 72% 30.04 in 7.0 mi West 6.9 mph - N/A   Overcast
1:54 PM 69.1 °F 59.2 °F 71% 30.02 in 7.0 mi West 10.4 mph - N/A   Mostly Cloudy
2:05 PM 69.8 °F - N/A% 30.02 in 10.0 mi West 11.5 mph - N/A   Scattered Clouds
2:54 PM 69.1 °F 60.3 °F 73% 30.01 in 7.0 mi West 12.7 mph - N/A   Partly Cloudy
3:54 PM 68.0 °F 59.0 °F 73% 30.00 in 7.0 mi West 10.4 mph - N/A   Scattered Clouds
4:54 PM 66.0 °F 58.3 °F 76% 29.99 in 7.0 mi West 11.5 mph - N/A   Scattered Clouds
5:54 PM 64.0 °F 57.2 °F 78% 29.99 in 7.0 mi West 10.4 mph - N/A   Scattered Clouds
6:54 PM 63.0 °F 57.7 °F 83% 29.99 in 7.0 mi WNW 9.2 mph - N/A   Scattered Clouds
7:54 PM 60.1 °F 55.2 °F 84% 29.99 in 7.0 mi WNW 3.5 mph - N/A   Clear
8:54 PM 60.1 °F 55.4 °F 85% 30.01 in 7.0 mi NNW 3.5 mph - N/A   Clear
9:54 PM 57.9 °F 53.2 °F 84% 30.02 in 7.0 mi ENE 3.5 mph - N/A   Clear
10:15 PM - - N/A% - - North - - N/A   Unknown
10:54 PM 55.9 °F 51.3 °F 84% 30.02 in 7.0 mi Calm Calm - N/A   Clear
11:54 PM 54.0 °F - N/A% 30.01 in 8.0 mi NE 3.5 mph - N/A   Clear